sat.trackr.live / text

‹ back to catalog

STARLINK-2234

NORAD 48580 · 2021-041AD

PAYLOAD ACTIVE UNKNOWN

§ Identity

Operator
Country
US
Launch date
2021-05-15
Launch site
AFETR
Launch vehicle
Mass (kg)
RCS (m²)

Purposes: comms

External: N2YO · Heavens-Above · Gunter

§ Orbital elements

Epoch: 2026-09-19T14:24:47.041344Z

Period
94.01 min
Inclination
53.1606°
Eccentricity
0.0001323
Mean motion
15.31712515 rev/d
Perigee alt
469.8 km
Apogee alt
471.6 km
Semi-major
6,848.8 km
B*
6.9874e-5
RAAN
278.5906°
Arg perigee
85.1730°
Mean anomaly
274.9422°
Rev number
29,535

§ Raw data

STARLINK-22341 48580U 21041AD  26262.60054446  .00001804  00000+0  69874-4 0  99902 48580  53.1606 278.5906 0001323  85.1730 274.9422 15.31712515295353

JSON: /api/v1/satellites/48580 · /tle

For live sub-satellite position, see the globe view (requires WebGL).

§ Visibility from observer

Set your observer location to see the next 7 days of passes ≥ 10°. The values pass through the URL so the page stays shareable.

No JS? Fill the form by hand. The geolocation button needs JavaScript.